PBO Station Position Time Series. Reference Frame : NAM14
Format Version,1.1.1
4-character ID,P188
Station name,BurntRidgeCN2006
Begin Date, 2006-11-30
End Date, 2023-06-26
Release Date, 2023-06-27
Reference position, 38.6678570142 North Latitude, -123.2295647787 East Longitude, 208.86922 meters elevation,
Date, North (mm), East (mm), Vertical (mm), North Std. Deviation (mm), East Std. Deviation (mm),              Vertical Std. Deviation (mm), Quality,
2006-11-30,0.00, 0.00, 0.00, 2.31, 1.96, 9.68, repro,
2006-12-01,-1.03, 0.92, 0.77, 2.43, 2.04, 10.44, repro,
2006-12-02,-0.42, 0.24, -9.05, 2.50, 2.11, 10.68, repro,
2006-12-03,-0.03, 0.48, -5.27, 2.42, 2.00, 10.17, repro,
2006-12-04,-1.56, 1.60, -1.37, 2.49, 2.02, 10.48, repro,
2006-12-05,-1.78, -1.14, 3.62, 2.33, 1.94, 9.76, repro,
2006-12-06,2.96, -0.26, -10.35, 2.38, 2.10, 10.03, repro,
2006-12-07,-1.17, -0.33, -3.08, 2.45, 2.15, 10.33, repro,
2006-12-08,-3.02, -2.67, 2.32, 2.43, 2.05, 10.00, repro,
2006-12-09,-4.39, -0.88, 4.81, 2.38, 1.95, 9.81, repro,
2006-12-10,-2.79, 0.35, 7.09, 2.39, 1.99, 9.90, repro,
2006-12-11,0.39, -0.15, -2.95, 2.36, 1.91, 9.84, repro,
2006-12-12,-3.71, 2.49, 3.79, 2.55, 2.09, 10.54, repro,
2006-12-13,-3.33, -0.97, 3.76, 2.30, 1.89, 9.64, repro,
2006-12-14,1.41, -1.27, -10.47, 2.38, 1.99, 10.04, repro,
2006-12-15,-1.45, -0.63, 9.65, 2.85, 2.59, 12.64, repro,
2006-12-16,1.33, -0.41, -0.77, 2.39, 1.99, 9.95, repro,
2006-12-17,-0.98, 1.08, -0.05, 2.39, 2.06, 9.95, repro,
2006-12-18,0.13, -0.16, -0.04, 2.46, 2.14, 9.87, repro,
2006-12-19,-0.68, 0.86, -4.13, 2.31, 2.07, 9.63, repro,
2006-12-20,-1.75, 1.47, 14.15, 2.65, 2.46, 11.78, repro,
2006-12-21,1.72, -1.13, -7.22, 2.78, 2.64, 13.01, repro,
2006-12-22,1.66, -1.20, -1.26, 2.34, 2.03, 9.92, repro,
2006-12-23,-2.52, 1.66, 10.08, 2.44, 2.17, 10.37, repro,
2006-12-24,0.04, -1.30, -2.27, 2.35, 1.95, 9.78, repro,
2006-12-25,-4.03, -2.48, 15.31, 2.85, 2.75, 13.16, repro,
2006-12-26,-3.96, 3.00, 8.43, 2.40, 2.07, 10.09, repro,
2006-12-27,-1.62, -2.67, 15.76, 2.43, 2.15, 10.55, repro,
2006-12-28,0.21, 2.21, -2.21, 2.63, 2.43, 10.95, repro,
2006-12-29,0.27, -1.82, -0.02, 2.38, 2.04, 10.10, repro,
2006-12-30,-0.97, 0.36, 7.11, 2.33, 1.98, 9.71, repro,
2006-12-31,0.46, -0.68, 2.59, 2.41, 2.08, 10.14, repro,
2007-01-01,0.64, 0.21, 7.33, 2.39, 2.08, 9.99, repro,
2007-01-02,-0.57, 0.63, -1.71, 2.53, 2.40, 10.62, repro,
2007-01-03,-1.79, 0.84, 10.49, 2.38, 2.05, 10.19, repro,
2007-01-04,-0.41, -1.07, 13.25, 2.34, 1.98, 9.84, repro,
2007-01-05,-1.29, -1.12, 6.33, 2.36, 1.95, 10.09, repro,
2007-01-06,0.78, 0.67, 8.67, 2.25, 1.86, 9.27, repro,
2007-01-07,-1.48, 3.41, 0.69, 2.92, 2.50, 12.13, repro,
2007-01-08,-0.19, -0.56, -8.29, 2.50, 2.11, 10.55, repro,
2007-01-09,-3.90, 1.60, 10.13, 2.58, 2.09, 10.80, repro,
2007-01-10,-1.68, -0.35, 0.91, 2.47, 2.01, 10.00, repro,
2007-01-11,-0.71, 0.34, 6.77, 2.50, 1.90, 10.31, repro,
2007-01-12,-1.32, 0.47, 3.98, 2.31, 1.88, 9.41, repro,
2007-01-13,-0.25, 0.42, -1.40, 2.29, 1.93, 9.28, repro,
2007-01-14,-0.88, 0.56, 5.17, 2.36, 2.03, 9.80, repro,
2007-01-15,-1.21, -0.12, -5.89, 2.32, 1.88, 9.56, repro,
2007-01-16,0.00, -0.71, -5.37, 2.95, 2.55, 12.82, repro,
2007-01-17,-0.77, 0.78, 7.21, 2.42, 1.96, 10.08, repro,
2007-01-18,-2.05, -2.15, 3.80, 2.51, 2.08, 10.64, repro,
2007-01-19,-1.71, 0.72, 14.37, 2.45, 1.97, 10.32, repro,
2007-01-20,1.81, -0.73, -8.53, 2.34, 1.83, 9.59, repro,
2007-01-21,-0.99, 0.65, -1.45, 2.32, 1.88, 9.59, repro,
2007-01-22,1.00, 1.39, -10.15, 2.50, 2.00, 10.22, repro,
2007-01-23,0.32, 1.58, -4.66, 2.67, 2.33, 10.99, repro,
2007-01-24,-0.91, 0.05, -0.77, 2.48, 2.05, 10.22, repro,
2007-01-25,-0.81, 0.54, -3.09, 2.37, 1.92, 9.59, repro,
2007-01-26,-2.85, 1.62, 10.26, 2.28, 1.83, 9.45, repro,
2007-01-27,-2.36, 0.59, 3.40, 2.36, 1.90, 9.36, repro,
2007-01-28,-5.14, 1.94, 17.82, 2.34, 1.84, 9.35, repro,
2007-01-29,0.30, -0.76, -4.21, 2.29, 1.86, 9.08, repro,
2007-01-30,0.38, -0.76, 3.07, 2.32, 1.95, 9.42, repro,
2007-01-31,-2.27, 0.54, 15.02, 2.39, 2.09, 9.80, repro,
2007-02-01,-1.79, 2.27, 6.54, 2.34, 1.95, 9.64, repro,
2007-02-02,-1.13, 1.79, -1.70, 2.35, 1.87, 9.48, repro,
2007-02-03,-2.35, 0.82, 9.19, 2.63, 2.13, 10.55, repro,
2007-02-04,-2.62, 1.21, 11.60, 2.35, 1.91, 9.58, repro,
2007-02-05,-1.22, 2.77, 2.41, 2.25, 1.87, 9.09, repro,
2007-02-06,-2.53, 0.75, 0.45, 2.25, 1.80, 9.07, repro,
2007-02-07,-2.59, 2.17, 7.38, 3.28, 2.64, 13.87, repro,
2007-02-08,-3.67, 2.05, 8.80, 2.39, 1.99, 9.75, repro,
2007-02-09,-5.62, 2.01, 4.94, 2.44, 1.92, 9.96, repro,
2007-02-10,-0.60, -2.21, -3.56, 2.36, 1.95, 9.83, repro,
2007-02-11,-0.83, 0.27, 4.37, 2.36, 1.93, 9.67, repro,
2007-02-12,-3.49, 1.94, 2.52, 2.26, 1.80, 9.00, repro,
2007-02-13,-1.33, 2.46, -3.32, 2.26, 1.82, 9.07, repro,
2007-02-14,-2.68, 1.03, 1.68, 2.37, 2.04, 9.66, repro,
2007-02-15,-1.78, 3.35, 2.25, 2.34, 1.95, 9.51, repro,
2007-02-16,-0.28, 1.57, 2.10, 2.34, 1.92, 9.39, repro,
2007-02-17,-0.22, 1.36, -5.29, 2.28, 1.88, 9.14, repro,
2007-02-18,0.10, 1.38, 0.98, 2.26, 1.80, 9.14, repro,
2007-02-19,-2.61, 3.08, 16.91, 2.28, 1.90, 9.24, repro,
2007-02-20,-0.91, 0.63, 10.00, 2.31, 1.97, 9.34, repro,
2007-02-21,0.10, 1.19, -2.67, 2.30, 1.89, 9.30, repro,
2007-02-22,-1.61, 3.38, 2.56, 2.36, 1.85, 9.49, repro,
2007-02-23,1.28, 0.69, 6.95, 2.32, 1.88, 9.16, repro,
2007-02-24,-1.82, 2.12, 3.40, 2.31, 1.88, 9.54, repro,
2007-02-25,-1.23, 0.22, -2.21, 2.28, 1.88, 9.32, repro,
2007-02-26,-2.63, 1.29, 1.29, 2.42, 2.02, 10.00, repro,
2007-02-27,-2.94, 1.73, 4.27, 2.40, 1.89, 9.51, repro,
2007-02-28,-2.79, 2.21, 8.76, 2.32, 1.85, 9.39, repro,
2007-03-01,0.26, 3.64, 0.52, 2.37, 1.99, 9.86, repro,
2007-03-02,-1.73, 2.70, 6.35, 2.53, 2.00, 10.37, repro,
2007-03-03,0.20, 2.04, -1.69, 2.47, 2.10, 10.20, repro,
2007-03-04,-0.40, 1.30, -1.53, 2.37, 2.01, 9.93, repro,
2007-03-05,-2.35, 1.92, 13.30, 2.33, 1.91, 9.39, repro,
2007-03-06,-2.52, 2.00, 5.70, 2.27, 1.91, 9.24, repro,
2007-03-07,-4.22, 1.02, 19.38, 2.28, 1.89, 9.24, repro,
2007-03-08,-3.96, 3.08, 15.74, 2.33, 1.87, 9.62, repro,
2007-03-09,-1.80, -0.29, 6.44, 2.40, 1.96, 9.86, repro,
2007-03-10,-2.26, 1.35, 6.73, 2.43, 1.98, 10.22, repro,
2007-03-11,-0.55, 0.42, 7.01, 2.29, 1.82, 9.18, repro,
2007-03-12,-3.19, 1.02, 7.18, 2.34, 1.89, 9.59, repro,
2007-03-13,-0.24, 1.65, 2.01, 2.75, 2.04, 10.59, repro,
2007-03-14,-1.41, 1.90, 9.31, 2.34, 1.91, 9.46, repro,
2007-03-15,-1.38, 1.32, 6.02, 2.38, 1.93, 9.66, repro,
2007-03-16,-0.47, 0.82, 0.81, 2.31, 1.88, 9.46, repro,
2007-03-17,-1.70, 1.51, 13.47, 2.31, 1.89, 9.39, repro,
2007-03-18,-2.16, 2.54, 9.33, 2.40, 2.00, 9.99, repro,
2007-03-19,-1.85, 3.72, 9.16, 2.43, 1.89, 9.73, repro,
2007-03-20,-1.54, 2.80, 13.89, 2.45, 1.87, 10.07, repro,
2007-03-21,0.98, -1.02, 3.79, 2.73, 2.05, 10.68, repro,
2007-03-22,-4.66, -0.89, 19.68, 2.53, 2.10, 10.58, repro,
2007-03-23,-3.02, 1.30, 21.07, 2.44, 1.92, 9.55, repro,
2007-03-24,-1.53, 1.56, 20.96, 2.80, 2.02, 11.04, repro,
2007-03-25,-1.96, 1.32, 12.99, 2.41, 1.94, 10.15, repro,
2007-03-26,-3.74, 1.31, 5.41, 2.39, 1.96, 9.92, repro,
2007-03-27,0.59, -2.57, -10.63, 2.51, 1.94, 10.37, repro,
2007-03-28,-1.69, 0.04, 10.56, 2.46, 1.89, 9.98, repro,
2007-03-29,-1.47, 0.73, 1.26, 2.38, 1.84, 9.65, repro,
2007-03-30,-1.08, 0.40, 5.04, 2.44, 2.04, 10.45, repro,
2007-03-31,-1.34, 2.20, 6.37, 2.33, 1.85, 9.52, repro,
2007-04-01,-1.11, 0.60, -0.32, 2.41, 1.87, 9.82, repro,
2007-04-02,0.06, 0.46, -8.17, 2.42, 1.91, 10.00, repro,
2007-04-03,-1.10, 0.70, 0.53, 2.81, 1.99, 11.16, repro,
2007-04-04,-2.17, 1.28, -4.04, 2.41, 1.89, 9.95, repro,
2007-04-05,-1.30, -0.26, 0.98, 2.44, 1.93, 10.25, repro,
2007-04-06,-2.17, -2.09, 4.30, 2.51, 2.04, 10.45, repro,
2007-04-07,-2.93, -2.03, 7.18, 2.49, 1.96, 10.32, repro,
2007-04-08,-0.08, -2.24, 3.13, 2.38, 1.84, 9.72, repro,
2007-04-09,-5.01, -0.70, 16.66, 2.58, 2.10, 10.65, repro,
2007-04-10,1.06, -1.11, -8.34, 2.70, 2.19, 11.76, repro,
2007-04-11,-0.31, -3.60, -3.52, 2.52, 2.00, 10.45, repro,
2007-04-12,1.74, -2.54, -2.42, 2.46, 1.87, 10.12, repro,
2007-04-13,-1.68, -0.24, 5.79, 2.44, 1.86, 10.02, repro,
2007-04-14,-0.46, -2.27, 0.17, 2.63, 2.13, 11.27, repro,
2007-04-15,-0.65, -0.21, 6.62, 2.53, 2.04, 10.78, repro,
2007-04-16,0.63, 0.60, -7.42, 2.79, 2.34, 12.24, repro,
2007-04-17,-1.64, -0.40, 2.90, 2.44, 1.90, 10.15, repro,
2007-04-18,-1.27, -1.49, -5.36, 2.64, 2.11, 10.99, repro,
2007-04-19,-0.82, -1.02, 1.83, 2.51, 1.96, 10.29, repro,
2007-04-20,-2.24, -0.63, 13.39, 2.51, 1.81, 10.19, repro,
2007-04-21,-1.04, -1.19, 3.22, 2.39, 1.87, 9.76, repro,
2007-04-22,-3.14, -1.33, 9.51, 2.49, 1.88, 10.45, repro,
2007-04-23,-1.42, -0.40, 4.04, 2.61, 1.90, 10.72, repro,
2007-04-24,0.88, 1.76, -4.42, 2.50, 1.81, 9.99, repro,
2007-04-25,-1.36, -0.95, 7.30, 2.54, 1.98, 10.50, repro,
2007-04-26,-1.66, -0.03, 6.85, 2.49, 1.89, 10.17, repro,
2007-04-27,-0.57, -0.47, 0.81, 2.46, 1.97, 10.39, repro,
2007-04-28,1.33, 0.12, -9.03, 2.38, 1.84, 9.64, repro,
2007-04-29,-2.76, -0.75, -0.15, 2.36, 1.77, 9.66, repro,
2007-04-30,-0.48, -1.12, 4.37, 2.40, 1.85, 9.80, repro,
2007-05-01,-2.86, -2.38, 8.57, 2.36, 1.75, 9.46, repro,
2007-05-02,-0.41, -0.63, -7.99, 2.60, 1.83, 10.57, repro,
2007-05-03,-2.51, -0.92, 6.62, 2.55, 1.89, 10.61, repro,
2007-05-04,-1.97, 1.44, 6.17, 2.51, 1.83, 10.28, repro,
2007-05-05,-1.18, 1.11, 5.99, 2.49, 1.97, 10.18, repro,
2007-05-06,-1.78, -1.58, 2.26, 2.42, 1.83, 9.81, repro,
2007-05-07,-1.69, -0.29, 6.84, 2.38, 1.77, 9.54, repro,
2007-05-08,-2.05, 0.28, 7.58, 2.50, 1.90, 10.32, repro,
2007-05-09,-3.14, 0.53, 14.54, 2.46, 1.86, 10.12, repro,
2007-05-10,-3.49, -1.06, 5.75, 2.59, 2.00, 11.19, repro,
2007-05-11,-1.17, -0.24, -4.14, 2.49, 1.92, 10.35, repro,
2007-05-12,-2.85, 0.16, 3.86, 3.01, 2.48, 12.66, repro,
2007-05-13,-2.01, -0.37, 12.50, 2.55, 1.93, 10.45, repro,
2007-05-14,-4.46, -1.98, 14.42, 3.15, 2.62, 13.63, repro,
2007-05-15,-1.92, 0.19, 7.89, 2.35, 1.83, 9.62, repro,
2007-05-16,-1.55, 0.38, 2.41, 2.57, 1.96, 10.88, repro,
2007-05-17,-0.17, -1.27, -8.44, 2.52, 1.94, 10.50, repro,
2007-05-18,0.52, -0.58, 2.92, 2.50, 1.91, 10.04, repro,
2007-05-19,-0.15, -2.50, 4.21, 2.44, 1.86, 9.74, repro,
2007-05-20,-2.65, -2.68, 15.95, 2.96, 2.54, 12.90, repro,
2007-05-21,1.40, -2.36, 11.41, 2.67, 2.11, 11.32, repro,
2007-05-22,-0.18, -1.32, 7.46, 2.50, 1.89, 10.01, repro,
2007-05-23,-2.22, 0.65, 16.32, 2.98, 2.41, 12.40, repro,
2007-05-24,-1.37, -1.77, 14.87, 2.49, 1.86, 9.85, repro,
2007-05-25,-3.96, -1.72, 9.35, 2.66, 2.16, 11.19, repro,
2007-05-26,-3.09, -1.03, 5.91, 2.44, 1.79, 9.88, repro,
2007-05-27,-1.46, 1.13, 4.01, 2.47, 1.88, 9.82, repro,
2007-05-28,-1.00, -0.76, 6.38, 2.47, 1.84, 9.93, repro,
2007-05-29,-1.86, -0.74, 0.94, 2.97, 2.44, 12.66, repro,
2007-05-30,-0.57, -3.66, -1.24, 3.02, 2.49, 12.58, repro,
2007-05-31,-5.38, -0.49, 24.62, 2.58, 1.95, 10.66, repro,
2007-06-01,-1.25, -0.10, 1.36, 2.54, 1.92, 10.20, repro,
2007-06-02,-2.23, -1.49, 10.72, 2.57, 2.01, 10.70, repro,
2007-06-03,-1.35, -2.65, -4.35, 2.69, 2.23, 11.34, repro,
2007-06-04,-0.05, -0.70, -0.05, 2.91, 2.01, 11.61, repro,
2007-06-05,-1.73, -2.12, 3.19, 3.09, 2.03, 11.84, repro,
2007-06-06,-3.18, -0.56, 3.25, 2.50, 1.91, 10.08, repro,
2007-06-07,-2.39, 0.67, 12.08, 2.48, 1.90, 10.13, repro,
2007-06-08,-1.61, -1.94, 4.52, 2.54, 1.98, 10.53, repro,
2007-06-09,-0.33, -0.36, 1.95, 2.47, 1.88, 10.02, repro,
2007-06-10,2.54, -3.76, 6.28, 2.47, 1.86, 9.92, repro,
2007-06-11,1.57, -1.02, 5.64, 2.47, 1.88, 10.15, repro,
2007-06-12,-1.97, -0.75, 16.47, 2.53, 2.08, 10.25, repro,
2007-06-13,-1.99, -0.32, 0.85, 2.44, 1.85, 9.97, repro,
2007-06-14,-0.29, -2.01, -11.93, 2.48, 1.87, 10.11, repro,
2007-06-15,-1.18, 0.13, 10.10, 2.45, 1.83, 10.03, repro,
2007-06-16,-0.24, -1.72, 4.20, 2.54, 1.90, 10.15, repro,
2007-06-17,1.81, -0.21, -13.88, 2.45, 1.94, 9.94, repro,
2007-06-18,-2.11, 0.40, 9.12, 2.45, 1.85, 9.85, repro,
2007-06-19,-1.58, -0.15, 2.93, 2.53, 2.05, 10.71, repro,
2007-06-20,0.48, -0.68, -10.48, 2.41, 1.91, 9.85, repro,
2007-06-21,-0.42, -1.07, -4.05, 2.57, 2.06, 10.53, repro,
2007-06-22,1.11, -1.35, -7.03, 2.40, 1.85, 9.48, repro,
2007-06-23,-0.32, 0.56, 2.11, 2.53, 2.03, 10.47, repro,
2007-06-24,-0.94, -1.00, -3.89, 2.52, 2.05, 10.58, repro,
2007-06-25,0.40, 1.89, 5.72, 2.71, 2.26, 11.47, repro,
2007-06-26,-1.25, 0.63, 0.62, 2.71, 2.23, 11.71, repro,
2007-06-27,1.95, -1.30, -10.85, 2.40, 1.86, 9.82, repro,
2007-06-28,0.01, 0.09, -4.73, 2.63, 2.08, 11.10, repro,
2007-06-29,-1.12, 0.68, -6.93, 2.48, 2.02, 10.11, repro,
2007-06-30,-2.70, 0.35, 8.57, 2.58, 2.06, 11.07, repro,
2007-07-01,-2.01, -0.92, 11.14, 2.43, 1.93, 10.14, repro,
2007-07-02,-0.01, -0.74, 4.17, 2.43, 1.94, 9.96, repro,
2007-07-03,2.84, 0.41, -10.04, 2.45, 1.88, 9.82, repro,
2007-07-04,0.37, -0.96, -5.43, 2.45, 1.84, 9.85, repro,
2007-07-05,-0.67, -2.77, -4.97, 2.48, 1.92, 10.07, repro,
2007-07-06,0.34, 0.94, -1.60, 2.85, 2.34, 12.02, repro,
2007-07-07,0.96, -1.07, -11.66, 2.51, 1.99, 10.63, repro,
2007-07-08,1.18, 0.21, -10.43, 2.53, 1.95, 10.52, repro,
2007-07-09,1.74, -1.31, -26.58, 2.57, 2.04, 10.54, repro,
2007-07-10,0.14, -2.26, -10.14, 2.42, 1.87, 9.79, repro,
2007-07-11,1.65, -1.72, -7.69, 2.47, 1.94, 9.93, repro,
2007-07-12,-1.38, 0.45, -2.42, 2.70, 2.11, 11.39, repro,
2007-07-13,-2.66, -0.89, 11.48, 2.49, 1.92, 10.22, repro,
2007-07-14,0.05, 0.12, -2.73, 2.47, 1.90, 10.09, repro,
2007-07-15,1.34, -1.19, -13.65, 2.48, 1.82, 9.64, repro,
2007-07-16,-0.10, -0.53, 2.33, 2.65, 2.18, 11.10, repro,
2007-07-17,-5.18, 1.63, 26.99, 2.49, 1.89, 10.45, repro,
2007-07-18,-0.13, -1.15, 10.92, 2.57, 1.94, 10.89, repro,
2007-07-19,-0.65, 1.67, 5.31, 2.78, 2.26, 11.95, repro,
2007-07-20,-0.09, -1.17, -3.81, 2.46, 1.86, 10.06, repro,
2007-07-21,-0.87, 0.66, -0.47, 2.53, 2.00, 10.44, repro,
2007-07-22,-0.04, 0.34, -3.59, 2.48, 1.94, 10.32, repro,
2007-07-23,0.17, -2.38, 8.46, 2.44, 1.82, 9.77, repro,
2007-07-24,-1.43, -1.66, 11.62, 2.53, 1.94, 10.43, repro,
2007-07-25,-0.75, -2.35, 2.28, 2.56, 2.09, 10.72, repro,
2007-07-26,-1.61, -1.99, -1.20, 2.52, 1.96, 10.14, repro,
2007-07-27,0.83, -0.09, -5.22, 2.50, 2.04, 10.29, repro,
2007-07-28,-0.89, -1.11, -1.58, 2.49, 1.91, 10.28, repro,
2007-07-29,-0.01, -1.50, 6.91, 2.51, 1.91, 10.33, repro,
2007-07-30,-1.90, 0.33, 2.31, 2.49, 1.96, 10.13, repro,
2007-07-31,-3.87, -1.58, 16.14, 2.53, 1.94, 10.59, repro,
2007-08-01,0.23, -2.00, -9.24, 2.42, 1.94, 9.95, repro,
2007-08-02,-0.46, -1.17, -7.98, 2.83, 2.31, 12.58, repro,
2007-08-03,0.44, -2.66, 1.69, 2.42, 1.81, 9.80, repro,
2007-08-04,-1.28, -1.05, 14.18, 2.71, 2.15, 11.48, repro,
2007-08-05,-2.07, -1.99, 15.89, 2.56, 2.06, 10.47, repro,
2007-08-06,-0.85, -2.55, 1.42, 2.49, 2.04, 10.37, repro,
2007-08-07,1.43, -1.17, -3.93, 2.57, 2.08, 11.05, repro,
2007-08-08,0.90, -0.84, -0.42, 2.45, 1.86, 9.95, repro,
2007-08-09,1.03, -2.71, 2.95, 2.43, 1.84, 9.90, repro,
2007-08-10,0.83, -0.28, 4.28, 2.44, 1.91, 10.05, repro,
2007-08-11,-1.48, -2.64, 7.15, 2.45, 1.90, 9.94, repro,
2007-08-12,-0.95, -2.66, 6.20, 2.45, 1.92, 10.16, repro,
2007-08-13,-0.29, -2.06, -6.82, 2.53, 2.02, 10.49, repro,
2007-08-14,0.24, -1.21, -4.37, 2.53, 1.95, 10.23, repro,
2007-08-15,0.50, -3.25, -5.26, 2.57, 2.01, 10.19, repro,
2007-08-16,-1.12, -2.12, 3.49, 2.68, 1.99, 10.61, repro,
2007-08-17,-2.45, -1.65, 17.18, 2.62, 2.12, 10.87, repro,
2007-08-18,0.74, -0.70, -4.47, 2.55, 1.96, 10.73, repro,
2007-08-19,0.73, -3.72, 0.39, 2.64, 2.05, 10.72, repro,
2007-08-20,2.42, -3.33, -13.32, 2.61, 2.19, 10.78, repro,
2007-08-21,-1.33, -3.32, 7.33, 2.51, 1.93, 10.12, repro,
2007-08-22,-0.67, -2.99, 4.30, 2.54, 1.96, 10.18, repro,
2007-08-23,-0.78, -1.40, 7.12, 2.52, 1.88, 10.03, repro,
2007-08-24,-0.75, -2.23, 1.54, 2.65, 2.12, 10.81, repro,
2007-08-25,1.90, -2.46, -6.93, 2.55, 1.98, 10.38, repro,
2007-08-26,-0.15, -2.83, 2.43, 2.47, 1.89, 9.82, repro,
2007-08-27,-0.23, -2.59, -3.39, 2.66, 2.10, 10.90, repro,
2007-08-28,-0.73, -2.30, 8.92, 2.63, 2.04, 10.57, repro,
2007-08-29,1.76, -3.87, -4.17, 2.59, 2.06, 10.65, repro,
2007-08-30,-0.29, -4.59, -3.43, 2.58, 2.08, 10.68, repro,
2007-08-31,0.62, -4.50, -3.18, 2.57, 2.04, 10.41, repro,
2007-09-01,-2.44, -4.39, 8.84, 2.61, 2.16, 10.54, repro,
2007-09-02,-1.18, -6.30, 14.42, 2.56, 2.06, 10.31, repro,
2007-09-03,-0.38, -1.64, 17.25, 2.72, 2.07, 11.26, repro,
2007-09-04,-1.01, -3.39, 17.79, 2.69, 2.26, 11.12, repro,
2007-09-05,2.66, -4.58, -5.31, 2.84, 2.30, 11.63, repro,
2007-09-06,0.08, -4.40, 5.95, 2.53, 2.02, 10.27, repro,
2007-09-07,-1.07, -5.22, 5.41, 2.56, 1.99, 10.20, repro,
2007-09-08,-1.24, -3.51, 7.20, 3.19, 2.55, 13.94, repro,
2007-09-09,-1.69, -2.06, 11.00, 2.79, 2.25, 11.78, repro,
2007-09-10,-2.32, -4.00, 6.13, 2.83, 2.12, 11.13, repro,
2007-09-11,-1.47, -3.58, 15.50, 2.58, 2.09, 10.57, repro,
2007-09-12,0.04, -5.27, -7.81, 2.61, 2.14, 10.95, repro,
2007-09-13,-0.73, -6.17, 2.26, 2.54, 1.90, 9.96, repro,
2007-09-14,-1.91, -3.36, 8.76, 2.55, 2.07, 10.29, repro,
2007-09-15,-1.56, -3.56, 2.96, 2.62, 2.01, 10.64, repro,
2007-09-16,-0.72, -7.51, 3.46, 3.03, 2.54, 12.79, repro,
2007-09-17,-0.75, -6.23, 6.08, 2.64, 2.06, 10.61, repro,
2007-09-18,0.72, -3.71, -6.70, 2.43, 1.95, 9.97, repro,
2007-09-19,-1.47, -5.42, 4.96, 2.38, 1.86, 9.70, repro,
2007-09-20,-2.80, -3.13, 11.78, 2.44, 1.96, 9.70, repro,
2007-09-21,0.25, -2.55, 0.61, 2.47, 1.94, 9.77, repro,
2007-09-22,-1.96, -4.43, 1.74, 2.47, 1.94, 9.81, repro,
2007-09-23,-0.46, -2.51, 2.15, 2.44, 1.82, 9.66, repro,
2007-09-24,-1.92, -2.17, 6.86, 2.67, 2.17, 10.87, repro,
2007-09-25,-4.55, -2.50, 7.63, 2.41, 1.81, 9.55, repro,
2007-09-26,-2.78, -2.38, 17.57, 2.43, 1.89, 9.74, repro,
2007-09-27,-1.77, -2.53, 9.46, 2.41, 1.96, 9.59, repro,
2007-09-28,0.21, -4.00, 5.37, 2.40, 1.90, 9.65, repro,
2007-09-29,-3.61, -4.39, 5.82, 2.54, 2.04, 10.29, repro,
2007-09-30,-1.72, -3.77, 9.51, 2.47, 1.99, 10.17, repro,
2007-10-01,-4.89, -2.82, 24.11, 2.49, 1.95, 10.21, repro,
2007-10-02,-2.72, -2.69, 10.50, 2.54, 2.04, 10.31, repro,
2007-10-03,-0.06, -3.37, 4.90, 2.50, 2.01, 10.22, repro,
2007-10-04,1.20, -3.58, -2.90, 2.48, 1.91, 9.85, repro,
2007-10-05,-2.70, -3.87, 11.52, 2.47, 1.95, 10.07, repro,
2007-10-06,-3.57, -2.06, 14.73, 2.48, 1.96, 10.03, repro,
2007-10-07,-2.03, -3.08, 6.16, 2.56, 2.00, 10.34, repro,
2007-10-08,-2.93, -2.46, 7.37, 2.58, 2.03, 10.52, repro,
2007-10-09,-3.64, -3.29, 9.85, 2.54, 2.13, 10.58, repro,
2007-10-10,-0.12, -3.21, -12.21, 2.73, 2.06, 10.82, repro,
2007-10-11,-3.79, -0.52, 22.67, 2.55, 1.99, 10.41, repro,
2007-10-12,-2.87, -0.69, 16.10, 2.50, 1.93, 10.33, repro,
2007-10-13,-2.30, -1.12, 2.64, 2.66, 2.19, 11.18, repro,
2007-10-14,-0.01, -2.91, 6.41, 2.40, 1.86, 9.89, repro,
2007-10-15,-3.54, -3.20, 9.13, 2.52, 2.01, 10.34, repro,
2007-10-16,-4.14, -0.55, 13.66, 2.52, 2.00, 10.46, repro,
2007-10-17,-3.96, -0.29, 23.44, 2.56, 2.01, 10.65, repro,
2007-10-18,-2.13, -2.43, 18.00, 2.57, 2.05, 10.39, repro,
2007-10-19,-3.55, -0.10, 22.09, 2.56, 2.04, 10.77, repro,
2007-10-20,-0.29, -2.74, 18.70, 2.42, 1.88, 10.08, repro,
2007-10-21,1.99, 0.96, 0.17, 2.45, 1.98, 10.08, repro,
2007-10-22,0.89, 2.71, 7.87, 2.49, 1.91, 10.07, repro,
2007-10-23,-1.88, 1.12, 1.36, 2.48, 2.04, 10.28, repro,
2007-10-24,-0.71, 1.78, 10.05, 2.36, 1.85, 9.52, repro,
2007-10-25,-1.70, 0.80, 3.29, 2.43, 1.90, 9.79, repro,
2007-10-26,-2.30, 3.26, -0.12, 2.59, 2.16, 10.59, repro,
2007-10-27,-1.44, 0.96, -2.64, 2.48, 2.06, 10.40, repro,
2007-10-28,-2.62, 2.02, 6.19, 2.53, 2.03, 10.46, repro,
2007-10-29,-0.64, 0.49, -1.41, 2.47, 2.03, 10.22, repro,
2007-10-30,-1.74, -1.36, 9.39, 2.34, 1.88, 9.40, repro,
2007-10-31,-1.06, -0.84, 4.27, 2.45, 1.91, 9.85, repro,
2007-11-01,-2.00, 1.45, 1.47, 2.46, 2.00, 9.96, repro,
2007-11-02,-2.40, 1.72, 12.66, 2.51, 2.11, 10.69, repro,
2007-11-03,-1.73, 2.45, 7.04, 2.51, 2.05, 10.41, repro,
2007-11-04,-0.35, 0.97, 1.58, 2.39, 1.96, 9.65, repro,
2007-11-05,-2.34, -0.74, 2.79, 2.35, 1.90, 9.47, repro,
2007-11-06,-2.48, -0.37, -6.58, 2.56, 2.11, 10.49, repro,
2007-11-07,-1.22, 0.77, 5.53, 2.36, 1.92, 9.54, repro,
2007-11-08,-1.53, 0.71, 9.71, 2.50, 2.03, 10.34, repro,
2007-11-09,0.27, 1.57, -1.46, 2.56, 2.12, 10.65, repro,
2007-11-10,-1.58, 0.13, 14.04, 2.40, 1.90, 9.86, repro,
2007-11-11,1.86, -0.83, -9.63, 2.55, 2.13, 10.72, repro,
2007-11-12,-2.28, -0.14, 5.74, 2.37, 1.87, 9.69, repro,
2007-11-13,-1.68, 1.44, 9.73, 2.51, 2.09, 10.81, repro,
2007-11-14,-0.99, 1.45, 8.33, 2.38, 1.93, 9.76, repro,
2007-11-15,-0.59, 0.30, -6.48, 2.93, 2.72, 12.64, repro,
2007-11-16,-0.15, 0.13, 2.55, 2.55, 1.98, 10.67, repro,
2007-11-17,-1.36, -2.71, -4.63, 2.46, 1.95, 10.10, repro,
2007-11-18,-2.04, -0.33, 5.12, 2.54, 1.97, 10.59, repro,
2007-11-19,0.11, 0.88, 10.72, 2.68, 2.18, 11.22, repro,
2007-11-20,-1.45, 0.47, 7.63, 2.49, 1.97, 10.26, repro,
2007-11-21,-3.46, -0.39, 18.86, 2.57, 2.07, 10.86, repro,
2007-11-22,-2.44, -0.52, 6.49, 2.28, 1.80, 8.87, repro,
2007-11-23,0.83, -0.61, -5.68, 2.38, 1.94, 9.74, repro,
2007-11-24,-3.82, 0.96, 12.17, 2.52, 2.19, 10.50, repro,
2007-11-25,0.19, 0.16, 9.45, 2.46, 2.10, 10.08, repro,
2007-11-26,1.12, -1.49, -5.27, 2.50, 2.03, 9.90, repro,
2007-11-27,-1.09, -0.97, 10.74, 2.58, 2.11, 10.12, repro,
2007-11-28,-2.57, -0.28, 0.27, 2.46, 2.06, 10.20, repro,
2007-11-29,-1.44, 0.33, 3.60, 2.54, 2.07, 10.77, repro,
2007-11-30,-1.64, 0.08, 11.87, 2.37, 1.89, 9.64, repro,
2007-12-01,-1.89, -0.01, 17.43, 2.41, 2.00, 9.70, repro,
2007-12-02,-1.99, 0.23, 3.97, 2.41, 1.89, 9.66, repro,
2007-12-03,2.40, 2.60, -15.38, 2.46, 2.10, 10.22, repro,
2007-12-04,-0.28, 1.97, 0.53, 2.55, 2.16, 10.81, repro,
2007-12-05,0.95, -0.81, 0.98, 2.44, 2.05, 10.19, repro,
2007-12-06,-1.76, 1.31, 7.30, 2.51, 2.09, 10.21, repro,
2007-12-07,-1.16, 0.36, 13.77, 2.63, 2.25, 11.11, repro,
2007-12-08,1.47, 1.01, 8.23, 2.30, 1.88, 9.26, repro,
2007-12-09,2.30, -0.20, -6.18, 2.42, 2.13, 10.09, repro,
2007-12-10,0.68, -0.99, -3.46, 2.58, 2.14, 10.92, repro,
2007-12-11,-0.02, 0.01, 1.78, 2.33, 1.97, 9.74, repro,
2007-12-12,-2.69, -2.39, 9.69, 2.92, 2.30, 12.00, repro,
2007-12-13,-0.36, 0.81, -2.57, 2.50, 1.88, 9.79, repro,
2007-12-14,3.01, -0.40, -4.48, 2.85, 2.12, 11.47, repro,
2007-12-15,1.73, 1.50, -3.13, 2.97, 2.38, 12.31, repro,
2007-12-16,0.04, -0.68, 13.94, 2.48, 1.91, 9.96, repro,
2007-12-17,0.22, -1.45, -0.46, 2.57, 2.10, 10.43, repro,
2007-12-18,0.33, -1.47, 10.63, 2.52, 1.93, 10.33, repro,
2007-12-19,-2.97, 0.88, 26.53, 2.50, 1.97, 10.26, repro,
2007-12-20,-0.51, -1.44, 16.62, 2.53, 2.00, 10.40, repro,
2007-12-21,0.88, 1.52, 5.02, 2.46, 1.90, 9.72, repro,
2007-12-22,-1.43, -0.20, -4.27, 2.48, 2.05, 10.16, repro,
2007-12-23,2.36, -0.15, -16.24, 2.85, 2.23, 11.66, repro,
2007-12-24,-1.63, 0.23, 27.29, 2.94, 1.97, 11.11, repro,
2007-12-25,-1.00, 0.80, 11.96, 2.44, 1.89, 9.76, repro,
2007-12-26,1.34, -1.51, -2.44, 2.53, 2.15, 10.21, repro,
2007-12-27,1.87, 1.22, -0.78, 2.91, 2.30, 11.90, repro,
2007-12-28,1.45, -0.81, -5.77, 3.06, 2.45, 13.10, repro,
2007-12-29,0.43, 0.68, 3.98, 2.56, 1.91, 10.37, repro,
2007-12-30,-0.04, 0.82, 15.87, 2.60, 2.04, 10.75, repro,
2007-12-31,-0.02, -0.36, 6.36, 2.46, 1.93, 9.79, repro,
2008-01-01,0.53, 0.78, -3.94, 2.56, 2.04, 10.64, repro,
2008-01-02,-1.88, 1.84, 5.99, 2.52, 2.05, 10.08, repro,
2008-01-03,-2.55, 0.72, 9.59, 2.47, 1.88, 10.05, repro,
2008-01-04,-2.09, -0.76, 8.80, 2.56, 1.87, 10.55, repro,
2008-01-05,-0.35, -0.99, -3.21, 2.43, 1.86, 9.92, repro,
2008-01-06,1.01, -0.02, -3.59, 2.57, 2.01, 10.40, repro,
2008-01-07,-1.92, -0.82, 7.43, 2.54, 1.90, 10.61, repro,
2008-01-08,-3.77, 1.60, 10.55, 2.51, 1.85, 10.16, repro,
2008-01-09,-0.33, -0.67, -0.96, 2.56, 1.90, 10.38, repro,
2008-01-10,-2.67, 2.72, 12.00, 2.44, 1.83, 10.02, repro,
2008-01-11,0.58, 0.85, 0.85, 2.61, 2.08, 10.83, repro,
2008-01-12,-0.05, 2.75, -2.05, 2.49, 2.00, 10.00, repro,
2008-01-13,-0.84, 1.02, -4.39, 2.45, 1.92, 10.02, repro,
2008-01-14,-1.42, 1.93, 3.91, 2.48, 1.95, 10.28, repro,
2008-01-15,-1.08, 1.36, 3.89, 2.49, 1.91, 10.01, repro,
2008-01-16,0.14, -0.28, 7.03, 2.54, 2.05, 10.44, repro,
2008-01-17,0.23, -0.03, 1.27, 2.53, 1.93, 9.97, repro,
2008-01-18,-1.22, 0.98, 2.73, 2.55, 2.13, 10.66, repro,
2008-01-19,-0.14, 0.58, -0.90, 2.41, 1.86, 9.81, repro,